This is the latest recevied weather packets stored in our database for station/object KC7YCE. If no packets are shown the sender has not sent any weather packets the latest 10 day(s).
| Time | Temp. | Humidity | Pressure | Rain* | Wind** | Luminosity | Snow |
|---|---|---|---|---|---|---|---|
| 1777481379 | 2.78° C | 43% | 1023.8 hPa | 0 mm | - | - | - |
| 1777480778 | 3.33° C | 48% | 1023.8 hPa | 0 mm | - | - | - |
| 1777480149 | 3.89° C | 46% | 1023.9 hPa | 0 mm | - | - | - |
| 1777479548 | 3.89° C | 44% | 1024 hPa | 0 mm | - | - | - |
| 1777478948 | 3.89° C | 49% | 1024 hPa | 0 mm | - | - | - |
| 1777478348 | 3.33° C | 43% | 1024.1 hPa | 0 mm | - | - | - |
| 1777477148 | 3.33° C | 47% | 1024.3 hPa | 0 mm | - | - | - |
| 1777476548 | 3.33° C | 48% | 1024.4 hPa | 0 mm | - | - | - |
| 1777475948 | 2.78° C | 51% | 1024.4 hPa | 0 mm | - | - | - |
| 1777475349 | 2.22° C | 52% | 1024.4 hPa | 0 mm | - | - | - |
| 1777474748 | 2.22° C | 56% | 1024.4 hPa | 0 mm | - | - | - |
| 1777473548 | 0° C | 60% | 1024.4 hPa | 0 mm | - | - | - |
| 1777472948 | -1.11° C | 64% | 1024.4 hPa | 0 mm | - | - | - |
| 1777472318 | -2.22° C | 67% | 1024.5 hPa | 0 mm | - | - | - |
| 1777471718 | -3.33° C | 70% | 1024.5 hPa | 0 mm | - | - | - |
| 1777471117 | -3.89° C | 72% | 1024.6 hPa | 0 mm | - | - | - |
| 1777470517 | -4.44° C | 76% | 1024.6 hPa | 0 mm | - | - | - |
| 1777469917 | -5.56° C | 79% | 1024.6 hPa | 0 mm | - | - | - |
| 1777469317 | -6.11° C | 80% | 1024.6 hPa | 0 mm | - | - | - |
| 1777468717 | -6.67° C | 82% | 1024.6 hPa | 0 mm | - | - | - |
| 1777468117 | -6.67° C | 82% | 1024.5 hPa | 0 mm | - | - | - |
| 1777466917 | -7.22° C | 83% | 1024.5 hPa | 0 mm | - | - | - |
| 1777466317 | -7.22° C | 83% | 1024.5 hPa | 0 mm | - | - | - |
| 1777465717 | -7.22° C | 83% | 1024.4 hPa | 0 mm | - | - | - |
| 1777465117 | -7.22° C | 83% | 1024.4 hPa | 0 mm | - | - | - |
* Rain latest hour (hover to see other rain measurements)
** Current wind speed in m/s (hover to see current wind gust speed)